Location: Peterborough
(44.3091°N, 78.3197°W)
Time: 06:09:26
(UTC-04:00)

A-11 Canister half - Pass Details

Date: 27 March 2023
Orbit: 1513 x 1686 km, 47.2° (Epoch: 04 June)

Event Time Altitude Azimuth Distance (km) Brightness Sun altitude
Exits shadow 04:58:36 26° 275° (W) 2,880 9.9 -22.3°
Maximum altitude 05:03:50 44° 222° (SW) 2,209 9.4 -21.5°
Drops below altitude 10° 05:13:07 10° 155° (SSE) 3,908 11.1 -20.0°
Sets 05:16:25 0° 149° (SSE) 4,876 11.7 -19.4°
